K5WRW-WX Weather Reports


Display with metric or nautical units.
time (UTC)temp
F
wind
direction
speed
MPH
gust
MPH
rain 1hr
in
rain 24hr
in
rain mn
in
humidity
%
barometer
mb
20260505230516 75 315 10.0 14.0 0.00 0.00 0.00 72 1003.8
20260505225515 76 315 7.0 11.0 0.00 0.00 0.00 71 1003.8
20260505224516 77 315 13.0 16.0 0.00 0.00 0.00 69 1003.6
20260505223515 77 315 7.0 10.0 0.00 0.00 0.00 67 1003.4
20260505222516 78 315 8.0 11.0 0.00 0.00 0.00 64 1003.1
20260505221515 79 293 9.0 14.0 0.00 0.00 0.00 60 1002.9
20260505220515 79 293 10.0 12.0 0.00 0.00 0.00 57 1002.9
20260505215515 80 270 11.0 13.0 0.00 0.00 0.00 56 1002.7
20260505214516 80 293 9.0 13.0 0.00 0.00 0.00 55 1002.6
20260505213515 81 293 9.0 12.0 0.00 0.00 0.00 53 1002.9
20260505212515 82 293 7.0 10.0 0.00 0.00 0.00 52 1003.1
20260505211515 83 315 12.0 20.0 0.00 0.00 0.00 52 1002.9
20260505210515 85 293 11.0 15.0 0.00 0.00 0.00 54 1002.9
20260505205515 86 0 9.0 14.0 0.00 0.00 0.00 55 1003.0
20260505204515 86 0 9.0 13.0 0.00 0.00 0.00 55 1003.1
20260505203557 85 0 8.0 10.0 0.00 0.00 0.00 62 1002.9
20260505202537 85 0 9.0 12.0 0.00 0.00 0.00 62 1003.1
20260505201515 84 0 10.0 12.0 0.00 0.00 0.00 63 1003.0
20260505200517 83 0 7.0 9.0 0.00 0.00 0.00 64 1003.0
20260505195517 83 0 9.0 12.0 0.00 0.00 0.00 64 1003.2
20260505194537 83 0 8.0 14.0 0.00 0.00 0.00 65 1003.2
20260505193517 83 0 12.0 21.0 0.00 0.00 0.00 64 1003.4
20260505192517 82 0 9.0 15.0 0.00 0.00 0.00 64 1003.3
20260505191517 82 0 7.0 16.0 0.00 0.00 0.00 64 1003.1
20260505190517 83 0 10.0 13.0 0.00 0.00 0.00 63 1002.9
20260505185517 83 0 6.0 10.0 0.00 0.00 0.00 63 1002.8
20260505184517 82 0 11.0 15.0 0.00 0.00 0.00 64 1002.8
20260505183537 81 0 9.0 13.0 0.00 0.00 0.00 67 1002.9
20260505182517 81 0 8.0 11.0 0.00 0.00 0.00 67 1003.1
20260505181517 81 0 8.0 12.0 0.00 0.00 0.00 68 1003.2
20260505180517 80 0 7.0 9.0 0.00 0.00 0.00 70 1003.1
20260505175517 79 0 12.0 20.0 0.00 0.00 0.00 71 1003.1
20260505174517 79 0 5.0 8.0 0.00 0.00 0.00 72 1003.0
20260505173517 79 0 10.0 14.0 0.00 0.00 0.00 73 1002.8
20260505172517 78 0 8.0 13.0 0.00 0.00 0.00 74 1002.8
20260505171517 78 0 9.0 18.0 0.00 0.00 0.00 74 1002.9
20260505170517 78 0 8.0 15.0 0.00 0.00 0.00 75 1002.5
20260505165537 77 0 10.0 15.0 0.00 0.00 0.00 75 1002.7
20260505164517 77 0 9.0 13.0 0.00 0.00 0.00 75 1002.9
20260505163537 77 0 8.0 11.0 0.00 0.00 0.00 76 1002.8
20260505162517 77 0 12.0 16.0 0.00 0.00 0.00 76 1002.9
20260505161520 76 0 10.0 14.0 0.00 0.00 0.00 76 1002.6
20260505160519 77 0 9.0 15.0 0.00 0.00 0.00 76 1002.4
20260505152516 76 0 13.0 20.0 0.00 0.00 0.00 76 1002.6
20260505151527 76 0 13.0 23.0 0.00 0.00 0.00 77 1002.5
20260505150517 76 0 12.0 19.0 0.00 0.00 0.00 78 1002.6
20260505140517 74 0 10.0 16.0 0.00 0.00 0.00 80 1002.0
20260505124516 72 0 8.0 14.0 0.00 0.00 0.00 82 1001.9
20260505123516 72 0 12.0 19.0 0.00 0.00 0.00 82 1001.9
20260505122516 72 0 11.0 18.0 0.00 0.00 0.00 82 1001.9
20260505121516 72 0 7.0 10.0 0.00 0.00 0.00 83 1001.7
20260505120516 72 0 7.0 13.0 0.00 0.00 0.00 82 1001.5
20260505115536 72 0 14.0 20.0 0.00 0.00 0.00 82 1001.3
20260505114516 72 0 13.0 18.0 0.00 0.00 0.00 82 1001.5
20260505113516 72 0 9.0 14.0 0.00 0.00 0.00 82 1001.5
20260505112516 72 0 8.0 12.0 0.00 0.00 0.00 81 1001.5
20260505111516 72 0 11.0 15.0 0.00 0.00 0.00 82 1001.6
20260505110516 72 0 12.0 19.0 0.00 0.00 0.00 82 1001.4
20260505101516 71 0 11.0 18.0 0.00 0.00 0.00 82 1001.5
20260505100536 71 0 9.0 13.0 0.00 0.00 0.00 82 1001.3
20260505095516 71 0 10.0 14.0 0.00 0.00 0.00 82 1001.3
20260505094516 71 0 8.0 11.0 0.00 0.00 0.00 82 1001.4
20260505093516 72 0 9.0 13.0 0.00 0.00 0.00 81 1001.5
20260505092516 72 0 9.0 14.0 0.00 0.00 0.00 81 1001.7
20260505091516 72 0 8.0 15.0 0.00 0.00 0.00 81 1001.8
20260505090515 72 0 8.0 12.0 0.00 0.00 0.00 80 1001.7
20260505085515 72 0 14.0 21.0 0.00 0.00 0.00 80 1001.7
20260505084516 72 0 9.0 14.0 0.00 0.00 0.00 80 1001.6
20260505083515 72 0 7.0 12.0 0.00 0.00 0.00 79 1001.6
20260505082515 72 0 9.0 12.0 0.00 0.00 0.00 79 1001.7
20260505081515 72 0 10.0 18.0 0.00 0.00 0.00 78 1001.8
20260505080515 72 0 12.0 19.0 0.00 0.00 0.00 78 1001.9
20260505075515 73 0 9.0 18.0 0.00 0.00 0.00 77 1002.0
20260505074515 73 0 7.0 12.0 0.00 0.00 0.00 77 1002.2
20260505073515 73 0 14.0 19.0 0.00 0.00 0.00 77 1002.2
20260505072515 73 0 10.0 14.0 0.00 0.00 0.00 76 1002.4
20260505071515 73 0 10.0 21.0 0.00 0.00 0.00 76 1002.6
20260505070616 73 0 13.0 20.0 0.00 0.00 0.00 76 1002.7
20260505065516 73 0 12.0 24.0 0.00 0.00 0.00 75 1002.8
20260505064515 73 0 8.0 11.0 0.00 0.00 0.00 75 1002.9
20260505063515 73 0 8.0 13.0 0.00 0.00 0.00 75 1003.0
20260505062515 73 0 12.0 20.0 0.00 0.00 0.00 74 1003.0
20260505061517 73 0 7.0 15.0 0.00 0.00 0.00 74 1003.1
20260505060515 73 0 7.0 14.0 0.00 0.00 0.00 74 1003.1
20260505055517 73 0 7.0 10.0 0.00 0.00 0.00 74 1003.1
20260505054517 73 0 7.0 11.0 0.00 0.00 0.00 74 1003.2
20260505053517 73 0 8.0 13.0 0.00 0.00 0.00 74 1003.3
20260505052517 73 0 7.0 11.0 0.00 0.00 0.00 74 1003.4
20260505051517 73 0 8.0 10.0 0.00 0.00 0.00 74 1003.6
20260505050517 73 0 8.0 12.0 0.00 0.00 0.00 74 1003.5
20260505041517 73 0 9.0 14.0 0.00 0.00 0.00 73 1003.8
20260505040517 73 0 10.0 19.0 0.00 0.00 0.00 73 1003.8
20260505035516 74 0 10.0 18.0 0.00 0.00 0.00 72 1003.9
20260505034517 74 0 8.0 14.0 0.00 0.00 0.00 72 1003.9
20260505033516 74 0 10.0 14.0 0.00 0.00 0.00 71 1004.1
20260505032517 74 0 9.0 14.0 0.00 0.00 0.00 71 1004.1
20260505031517 74 0 9.0 12.0 0.00 0.00 0.00 71 1004.1
20260505030517 74 0 10.0 13.0 0.00 0.00 0.00 71 1004.1
20260505025516 74 0 7.0 11.0 0.00 0.00 0.00 71 1004.1
20260505024516 74 0 8.0 13.0 0.00 0.00 0.00 70 1004.1
20260505023516 74 0 8.0 11.0 0.00 0.00 0.00 70 1004.0
20260505022516 75 0 8.0 13.0 0.00 0.00 0.00 69 1004.1
20260505021537 75 0 10.0 12.0 0.00 0.00 0.00 69 1004.1
20260505020516 75 0 9.0 14.0 0.00 0.00 0.00 68 1003.9
20260505015516 75 0 9.0 12.0 0.00 0.00 0.00 68 1004.0
20260505014516 76 0 6.0 8.0 0.00 0.00 0.00 67 1003.9
20260505013516 76 0 9.0 16.0 0.00 0.00 0.00 67 1003.9
20260505012537 76 0 10.0 18.0 0.00 0.00 0.00 66 1003.7
20260505011517 76 0 10.0 15.0 0.00 0.00 0.00 66 1003.5
20260505010536 77 0 11.0 20.0 0.00 0.00 0.00 65 1003.3
20260505005516 77 0 14.0 22.0 0.00 0.00 0.00 65 1003.4
20260505004516 77 0 9.0 14.0 0.00 0.00 0.00 65 1003.6
20260505003516 77 0 11.0 18.0 0.00 0.00 0.00 64 1003.6
20260505002556 78 0 10.0 12.0 0.00 0.00 0.00 64 1003.6
20260505001516 78 0 8.0 13.0 0.00 0.00 0.00 63 1003.8
20260505000516 78 0 7.0 11.0 0.00 0.00 0.00 62 1003.8
20260504235516 79 0 8.0 12.0 0.00 0.00 0.00 61 1003.8
20260504234516 79 0 11.0 14.0 0.00 0.00 0.00 61 1003.9
20260504233516 79 0 13.0 19.0 0.00 0.00 0.00 60 1004.1
20260504232516 79 0 15.0 24.0 0.00 0.00 0.00 60 1004.2
20260504231516 79 0 14.0 21.0 0.00 0.00 0.00 60 1004.3